Regional Weather Roundup
Issued by NWS

Home | Current Version | Previous Version | Graphics & Text | Print | Product List | Glossary On
Versions: 1 2 3 4 5 6 7 8 9 10 11 12 13 14 15 16 17 18 19 20 21 22 23 24 25 26 27 28 29 30 31 32 33 34 35 36 37 38 39 40 41 42 43 44 45 46 47 48 49 50
616
ASUS43 KLOT 260808
RWRIL

ILLINOIS REGIONAL WEATHER ROUNDUP
NATIONAL WEATHER SERVICE CHICAGO/ROMEOVILLE IL
300 AM CDT SUN MAR 26 2017

NOTE: "FAIR" INDICATES FEW OR NO CLOUDS BELOW 12,000 FEET WITH NO
SIGNIFICANT WEATHER AND/OR OBSTRUCTIONS TO VISIBILITY.

* THESE STATIONS ARE NOT UNDER NWS QUALITY CONTROL. THEY ALSO MAY NOT
  REPORT WEATHER SUCH AS PRECIPITATION OR FOG.

ILZ001-002-007-009-015-016-024-260900-
NORTHWEST ILLINOIS

CITY           SKY/WX    TMP DP  RH WIND       PRES   REMARKS
MOLINE         CLOUDY    48  46  93 E6        29.81F FOG
STERLING*      CLOUDY    49  49 100 E12       29.84F FOG
SAVANNA*       CLOUDY    45  44  98 NE9       29.85F FOG
$$

ILZ003-004-008-010-011-017-018-260900-
NORTH CENTRAL ILLINOIS

CITY           SKY/WX    TMP DP  RH WIND       PRES   REMARKS
ROCKFORD       CLOUDY    46  44  93 E7        29.89F FOG
FREEPORT*      CLOUDY    43  43  99 E9        29.89F FOG
ROCHELLE*      CLOUDY    48  48 100 E13       29.86F FOG
DE KALB*       FOG       47  47  98 E12       29.88F VSB 1
PERU*          CLOUDY    52  51  98 E8        29.84F FOG
$$

ILZ005-006-012>014-019>023-260900-
NORTHEAST ILLINOIS

CITY           SKY/WX    TMP DP  RH WIND       PRES   REMARKS
CHICAGO-OHARE  CLOUDY    47  45  93 NE6       29.89F FOG
CHICAGO-MIDWAY CLOUDY    48  47  96 VRB7      29.90F FOG
AURORA         CLOUDY    50  48  93 E10       29.87F FOG
LANSING*       CLOUDY    51  51 100 SE7       29.91S
JOLIET*        MOCLDY    55  54  97 E12       29.88S FOG
WAUKEGAN       FOG       41  41 100 NE8       29.92F VSB 1/4
DUPAGE AIRPORT CLOUDY    47  47 100 E6        29.88F FOG
KANKAKEE*      CLOUDY    54  54  97 SE10      29.88F
WHEELING       CLOUDY    44  44 100 NE5       29.91F FOG
MORRIS*        CLOUDY    54  53  96 E9        29.85F FOG
ROMEOVILLE*    CLOUDY    52  52 100 SE9       29.88F FOG
$$

LMZ740>746-260900-
SOUTHERN LAKE MICHIGAN

STATION/POSITION SKY/WX   TEMP    WIND        PRES    VSBY  WAVE
                          AIR SEA DIR/SP/G                  HT/PER
                          (F)     (DEG/KT/KT) (MB)    (MI)  (FT/S)
HARRISON CRIB              43     100/  5/  6   N/A
BURNHAM HARBOR             43      40/  4/  6   N/A
CALUMET HARBOR             43     110/  3/  4 1012.2F
BURNS HARBOR               52     130/ 10/ 19 1013.5F
MICHIGAN CITY              48     110/ 12/ 14   N/A
$$

ILZ025>027-034>036-040-047-049-050-058-095>099-260900-
WEST-CENTRAL ILLINOIS

CITY           SKY/WX    TMP DP  RH WIND       PRES   REMARKS
QUINCY         CLOUDY    53  52  96 S12       29.78S FOG
GALESBURG*     PTCLDY    55  54  99 SE5       29.79S
MACOMB*        CLOUDY    54  53  97 S9        29.82S
JACKSONVILLE*  CLOUDY    53  50  89 S13       29.82S
PITTSFIELD*    CLOUDY    52  51  95 S10       29.82S
$$

ILZ028>032-037-038-041>044-048-051>054-059>061-260900-
CENTRAL ILLINOIS

CITY           SKY/WX    TMP DP  RH WIND       PRES   REMARKS
PONTIAC        CLOUDY    56  55  98 SE9       29.86S
BLOOMINGTON    CLOUDY    55  53  93 S10       29.84F
DECATUR        CLOUDY    56  53  90 S8        29.84F
PEORIA         CLOUDY    58  56  93 S13       29.82S
LACON*         CLOUDY    54  54 100 E7        29.81F FOG
LINCOLN*       CLOUDY    56  56  98 S6        29.83S
SPRINGFIELD    PTCLDY    55  52  89 S8        29.83S
TAYLORVILLE    PTCLDY    54  54 100 S9        29.84S
$$

ILZ033-039-045-046-055>057-062-063-260900-
EAST-CENTRAL ILLINOIS

CITY           SKY/WX    TMP DP  RH WIND       PRES   REMARKS
CHAMPAIGN      CLOUDY    59  53  80 SE13      29.85F
RANTOUL*       CLOUDY    59  58  94 SE9       29.86F
MATTOON        CLOUDY    58  55  90 S7        29.85F
PARIS*         CLOUDY    58  57  97 SE12      29.88F
$$

ILZ079-100>102-260900-
SOUTHWEST ILLINOIS

CITY           SKY/WX    TMP DP  RH WIND       PRES   REMARKS
ALTON          CLOUDY    53  49  89 SW9       29.85F
BELLEVILLE     MOCLDY    54  53  99 SW7       29.84F
CAHOKIA*       CLOUDY    55  49  80 SW5       29.86S
SPARTA*        CLOUDY    55  52  92 S5        29.88S
$$

ILZ064>066-069>071-074>076-080>082-084>086-088>090-092>094-260900-
SOUTH-CENTRAL ILLINOIS

CITY           SKY/WX    TMP DP  RH WIND       PRES   REMARKS
CARBONDALE     CLOUDY    55  55 100 S6        29.87F
CAIRO*         MOCLDY    55  54  95 S9        29.90S
EFFINGHAM*     CLOUDY    58  56  92 SE6       29.88S
MARION         MOCLDY    57  57 100 S7        29.88F
MT. VERNON     CLOUDY    56  55  97 S9        29.87S
CENTRALIA*     CLOUDY    57  56  99 S8        29.85S
SALEM*         PTCLDY    57  55  91 S7        29.86S
METROPOLIS*    CLOUDY    57  55  93 S6        29.91S
$$

ILZ067-068-072-073-078-083-087-091-260900-
SOUTHEAST ILLINOIS

CITY           SKY/WX    TMP DP  RH WIND       PRES   REMARKS
LAWRENCEVILLE  LGT RAIN  59  58  96 S10       29.89F
FLORA*         CLOUDY    58  55  91 S9        29.87S
FAIRFIELD*     CLOUDY    57  55  94 S5        29.87S
HARRISBURG*    CLOUDY    57  55  92 S8        29.89S
ROBINSON*      CLOUDY    59  56  92 S14       29.89F
CARMI*         LGT RAIN  55  54  97 S6        29.88F
$$

ABBREVIATIONS USED IN REMARKS
   TC - TEMPERATURE IN CELSIUS
  WCI - WIND CHILL INDEX
   HX - HEAT INDEX
  VSB - VISIBILITY
$$





USA.gov is the U.S. government's official web portal to all federal, state and local government web resources and services.